Year,Month,Day,Hour,Minute,Value (Times are PST for windgust in km/hr)
2015,07,18,00,00,38.60
2015,07,18,00,01,30.60
2015,07,18,00,02,41.80
2015,07,18,00,03,33.80
2015,07,18,00,04,38.60
2015,07,18,00,05,38.60
2015,07,18,00,06,27.40
2015,07,18,00,07,38.60
2015,07,18,00,08,33.80
2015,07,18,00,09,33.80
2015,07,18,00,10,49.90
2015,07,18,00,11,37.00
2015,07,18,00,12,35.40
2015,07,18,00,13,48.30
2015,07,18,00,14,38.60
2015,07,18,00,15,32.20
2015,07,18,00,16,38.60
2015,07,18,00,17,40.20
2015,07,18,00,18,33.80
2015,07,18,00,19,25.70
2015,07,18,00,20,33.80
2015,07,18,00,21,33.80
2015,07,18,00,22,45.10
2015,07,18,00,23,40.20
2015,07,18,00,24,30.60
2015,07,18,00,25,38.60
2015,07,18,00,26,49.90
2015,07,18,00,27,35.40
2015,07,18,00,28,40.20
2015,07,18,00,29,37.00
2015,07,18,00,30,45.10
2015,07,18,00,31,40.20
2015,07,18,00,32,41.80
2015,07,18,00,33,43.50
2015,07,18,00,34,30.60
2015,07,18,00,35,30.60
2015,07,18,00,36,38.60
2015,07,18,00,37,37.00
2015,07,18,00,38,35.40
2015,07,18,00,39,30.60
2015,07,18,00,40,32.20
2015,07,18,00,41,38.60
2015,07,18,00,42,37.00
2015,07,18,00,43,38.60
2015,07,18,00,44,45.10
2015,07,18,00,45,33.80
2015,07,18,00,46,32.20
2015,07,18,00,47,37.00
2015,07,18,00,48,40.20
2015,07,18,00,49,32.20
2015,07,18,00,50,40.20
2015,07,18,00,51,43.50
2015,07,18,00,52,37.00
2015,07,18,00,53,41.80
2015,07,18,00,54,37.00
2015,07,18,00,55,38.60
2015,07,18,00,56,29.00
2015,07,18,00,57,24.20
2015,07,18,00,58,37.00
2015,07,18,00,59,29.00
2015,07,18,01,00,33.80
2015,07,18,01,01,40.20
2015,07,18,01,02,33.80
2015,07,18,01,03,38.60
2015,07,18,01,04,38.60
2015,07,18,01,05,38.60
2015,07,18,01,06,30.60
2015,07,18,01,07,32.20
2015,07,18,01,08,40.20
2015,07,18,01,09,37.00
2015,07,18,01,10,38.60
2015,07,18,01,11,33.80
2015,07,18,01,12,32.20
2015,07,18,01,13,38.60
2015,07,18,01,14,35.40
2015,07,18,01,15,24.20
2015,07,18,01,16,35.40
2015,07,18,01,17,32.20
2015,07,18,01,18,35.40
2015,07,18,01,19,41.80
2015,07,18,01,20,33.80
2015,07,18,01,21,33.80
2015,07,18,01,22,29.00
2015,07,18,01,23,30.60
2015,07,18,01,24,30.60
2015,07,18,01,25,30.60
2015,07,18,01,26,30.60
2015,07,18,01,27,32.20
2015,07,18,01,28,51.50
2015,07,18,01,29,30.60
2015,07,18,01,30,35.40
2015,07,18,01,31,38.60
2015,07,18,01,32,33.80
2015,07,18,01,33,30.60
2015,07,18,01,34,33.80
2015,07,18,01,35,33.80
2015,07,18,01,36,30.60
2015,07,18,01,37,27.40
2015,07,18,01,38,30.60
2015,07,18,01,39,32.20
2015,07,18,01,40,25.70
2015,07,18,01,41,27.40
2015,07,18,01,42,27.40
2015,07,18,01,43,30.60
2015,07,18,01,44,29.00
2015,07,18,01,45,33.80
2015,07,18,01,46,30.60
2015,07,18,01,47,37.00
2015,07,18,01,48,32.20
2015,07,18,01,49,24.20
2015,07,18,01,50,33.80
2015,07,18,01,51,32.20
2015,07,18,01,52,25.70
2015,07,18,01,53,22.50
2015,07,18,01,54,32.20
2015,07,18,01,55,24.20
2015,07,18,01,56,29.00
2015,07,18,01,57,35.40
2015,07,18,01,58,41.80
2015,07,18,01,59,45.10
2015,07,18,02,00,45.10
2015,07,18,02,01,45.10
2015,07,18,02,02,33.80
2015,07,18,02,03,30.60
2015,07,18,02,04,37.00
2015,07,18,02,05,43.50
2015,07,18,02,06,32.20
2015,07,18,02,07,30.60
2015,07,18,02,08,38.60
2015,07,18,02,09,25.70
2015,07,18,02,10,33.80
2015,07,18,02,11,30.60
2015,07,18,02,12,40.20
2015,07,18,02,13,30.60
2015,07,18,02,14,20.90
2015,07,18,02,15,29.00
2015,07,18,02,16,29.00
2015,07,18,02,17,27.40
2015,07,18,02,18,27.40
2015,07,18,02,19,32.20
2015,07,18,02,20,32.20
2015,07,18,02,21,33.80
2015,07,18,02,22,27.40
2015,07,18,02,23,25.70
2015,07,18,02,24,29.00
2015,07,18,02,25,32.20
2015,07,18,02,26,32.20
2015,07,18,02,27,35.40
2015,07,18,02,28,20.90
2015,07,18,02,29,33.80
2015,07,18,02,30,30.60
2015,07,18,02,31,32.20
2015,07,18,02,32,25.70
2015,07,18,02,33,38.60
2015,07,18,02,34,45.10
2015,07,18,02,35,35.40
2015,07,18,02,36,24.20
2015,07,18,02,37,27.40
2015,07,18,02,38,25.70
2015,07,18,02,39,32.20
2015,07,18,02,40,24.20
2015,07,18,02,41,35.40
2015,07,18,02,42,29.00
2015,07,18,02,43,29.00
2015,07,18,02,44,30.60
2015,07,18,02,45,25.70
2015,07,18,02,46,25.70
2015,07,18,02,47,35.40
2015,07,18,02,48,40.20
2015,07,18,02,49,24.20
2015,07,18,02,50,37.00
2015,07,18,02,51,30.60
2015,07,18,02,52,27.40
2015,07,18,02,53,24.20
2015,07,18,02,54,27.40
2015,07,18,02,55,35.40
2015,07,18,02,56,29.00
2015,07,18,02,57,25.70
2015,07,18,02,58,20.90
2015,07,18,02,59,22.50
2015,07,18,03,00,25.70
2015,07,18,03,01,30.60
2015,07,18,03,02,24.20
2015,07,18,03,03,24.20
2015,07,18,03,04,37.00
2015,07,18,03,05,35.40
2015,07,18,03,06,25.70
2015,07,18,03,07,37.00
2015,07,18,03,08,37.00
2015,07,18,03,09,30.60
2015,07,18,03,10,43.50
2015,07,18,03,11,35.40
2015,07,18,03,12,29.00
2015,07,18,03,13,35.40
2015,07,18,03,14,27.40
2015,07,18,03,15,41.80
2015,07,18,03,16,27.40
2015,07,18,03,17,27.40
2015,07,18,03,18,32.20
2015,07,18,03,19,25.70
2015,07,18,03,20,29.00
2015,07,18,03,21,24.20
2015,07,18,03,22,20.90
2015,07,18,03,23,17.70
2015,07,18,03,24,19.30
2015,07,18,03,25,19.30
2015,07,18,03,26,16.10
2015,07,18,03,27,22.50
2015,07,18,03,28,22.50
2015,07,18,03,29,24.20
2015,07,18,03,30,29.00
2015,07,18,03,31,25.70
2015,07,18,03,32,16.10
2015,07,18,03,33,22.50
2015,07,18,03,34,20.90
2015,07,18,03,35,20.90
2015,07,18,03,36,12.90
2015,07,18,03,37,25.70
2015,07,18,03,38,25.70
2015,07,18,03,39,19.30
2015,07,18,03,40,24.20
2015,07,18,03,41,27.40
2015,07,18,03,42,22.50
2015,07,18,03,43,24.20
2015,07,18,03,44,22.50
2015,07,18,03,45,25.70
2015,07,18,03,46,24.20
2015,07,18,03,47,22.50
2015,07,18,03,48,24.20
2015,07,18,03,49,17.70
2015,07,18,03,50,20.90
2015,07,18,03,51,19.30
2015,07,18,03,52,22.50
2015,07,18,03,53,22.50
2015,07,18,03,54,22.50
2015,07,18,03,55,20.90
2015,07,18,03,56,25.70
2015,07,18,03,57,22.50
2015,07,18,03,58,20.90
2015,07,18,03,59,19.30
2015,07,18,04,00,20.90
2015,07,18,04,01,24.20
2015,07,18,04,02,27.40
2015,07,18,04,03,25.70
2015,07,18,04,04,27.40
2015,07,18,04,05,20.90
2015,07,18,04,06,20.90
2015,07,18,04,07,22.50
2015,07,18,04,08,17.70
2015,07,18,04,09,19.30
2015,07,18,04,10,17.70
2015,07,18,04,11,17.70
2015,07,18,04,12,16.10
2015,07,18,04,13,14.50
2015,07,18,04,14,16.10
2015,07,18,04,15,16.10
2015,07,18,04,16,16.10
2015,07,18,04,17,17.70
2015,07,18,04,18,19.30
2015,07,18,04,19,19.30
2015,07,18,04,20,17.70
2015,07,18,04,21,20.90
2015,07,18,04,22,19.30
2015,07,18,04,23,19.30
2015,07,18,04,24,16.10
2015,07,18,04,25,20.90
2015,07,18,04,26,16.10
2015,07,18,04,27,19.30
2015,07,18,04,28,20.90
2015,07,18,04,29,20.90
2015,07,18,04,30,20.90
2015,07,18,04,31,22.50
2015,07,18,04,32,24.20
2015,07,18,04,33,24.20
2015,07,18,04,34,20.90
2015,07,18,04,35,29.00
2015,07,18,04,36,25.70
2015,07,18,04,37,25.70
2015,07,18,04,38,32.20
2015,07,18,04,39,27.40
2015,07,18,04,40,27.40
2015,07,18,04,41,32.20
2015,07,18,04,42,29.00
2015,07,18,04,43,29.00
2015,07,18,04,44,22.50
2015,07,18,04,45,20.90
2015,07,18,04,46,27.40
2015,07,18,04,47,22.50
2015,07,18,04,48,22.50
2015,07,18,04,49,20.90
2015,07,18,04,50,17.70
2015,07,18,04,51,25.70
2015,07,18,04,52,16.10
2015,07,18,04,53,16.10
2015,07,18,04,54,17.70
2015,07,18,04,55,17.70
2015,07,18,04,56,20.90
2015,07,18,04,57,22.50
2015,07,18,04,58,17.70
2015,07,18,04,59,17.70
2015,07,18,05,00,17.70
2015,07,18,05,01,17.70
2015,07,18,05,02,16.10
2015,07,18,05,03,16.10
2015,07,18,05,04,12.90
2015,07,18,05,05,14.50
2015,07,18,05,06,12.90
2015,07,18,05,07,24.20
2015,07,18,05,08,20.90
2015,07,18,05,09,16.10
2015,07,18,05,10,11.30
2015,07,18,05,11,16.10
2015,07,18,05,12,19.30
2015,07,18,05,13,16.10
2015,07,18,05,14,19.30
2015,07,18,05,15,17.70
2015,07,18,05,16,20.90
2015,07,18,05,17,20.90
2015,07,18,05,18,20.90
2015,07,18,05,19,20.90
2015,07,18,05,20,22.50
2015,07,18,05,21,22.50
2015,07,18,05,22,19.30
2015,07,18,05,23,16.10
2015,07,18,05,24,11.30
2015,07,18,05,25,16.10
2015,07,18,05,26,12.90
2015,07,18,05,27,17.70
2015,07,18,05,28,12.90
2015,07,18,05,29,17.70
2015,07,18,05,30,17.70
2015,07,18,05,31,20.90
2015,07,18,05,32,19.30
2015,07,18,05,33,19.30
2015,07,18,05,34,16.10
2015,07,18,05,35,14.50
2015,07,18,05,36,14.50
2015,07,18,05,37,12.90
2015,07,18,05,38,14.50
2015,07,18,05,39,16.10
2015,07,18,05,40,19.30
2015,07,18,05,41,11.30
2015,07,18,05,42,16.10
2015,07,18,05,43,11.30
2015,07,18,05,44,17.70
2015,07,18,05,45,16.10
2015,07,18,05,46,16.10
2015,07,18,05,47,16.10
2015,07,18,05,48,17.70
2015,07,18,05,49,20.90
2015,07,18,05,50,19.30
2015,07,18,05,51,19.30
2015,07,18,05,52,17.70
2015,07,18,05,53,16.10
2015,07,18,05,54,16.10
2015,07,18,05,55,16.10
2015,07,18,05,56,12.90
2015,07,18,05,57,17.70
2015,07,18,05,58,17.70
2015,07,18,05,59,11.30
2015,07,18,06,00,17.70
2015,07,18,06,01,11.30
2015,07,18,06,02,16.10
2015,07,18,06,03,20.90
2015,07,18,06,04,17.70
2015,07,18,06,05,17.70
2015,07,18,06,06,19.30
2015,07,18,06,07,17.70
2015,07,18,06,08,20.90
2015,07,18,06,09,19.30
2015,07,18,06,10,16.10
2015,07,18,06,11,19.30
2015,07,18,06,12,19.30
2015,07,18,06,13,17.70
2015,07,18,06,14,22.50
2015,07,18,06,15,22.50
2015,07,18,06,16,22.50
2015,07,18,06,17,22.50
2015,07,18,06,18,22.50
2015,07,18,06,19,25.70
2015,07,18,06,20,24.20
2015,07,18,06,21,22.50
2015,07,18,06,22,17.70
2015,07,18,06,23,17.70
2015,07,18,06,24,17.70
2015,07,18,06,25,22.50
2015,07,18,06,26,17.70
2015,07,18,06,27,19.30
2015,07,18,06,28,16.10
2015,07,18,06,29,16.10
2015,07,18,06,30,25.70
2015,07,18,06,31,20.90
2015,07,18,06,32,22.50
2015,07,18,06,33,24.20
2015,07,18,06,34,24.20
2015,07,18,06,35,20.90
2015,07,18,06,36,17.70
2015,07,18,06,37,17.70
2015,07,18,06,38,19.30
2015,07,18,06,39,20.90
2015,07,18,06,40,16.10
2015,07,18,06,41,16.10
2015,07,18,06,42,11.30
2015,07,18,06,43,20.90
2015,07,18,06,44,22.50
2015,07,18,06,45,22.50
2015,07,18,06,46,22.50
2015,07,18,06,47,20.90
2015,07,18,06,48,19.30
2015,07,18,06,49,16.10
2015,07,18,06,50,27.40
2015,07,18,06,51,25.70
2015,07,18,06,52,19.30
2015,07,18,06,53,27.40
2015,07,18,06,54,19.30
2015,07,18,06,55,19.30
2015,07,18,06,56,30.60
2015,07,18,06,57,29.00
2015,07,18,06,58,29.00
2015,07,18,06,59,27.40
2015,07,18,07,00,19.30
2015,07,18,07,01,27.40
2015,07,18,07,02,14.50
2015,07,18,07,03,25.70
2015,07,18,07,04,22.50
2015,07,18,07,05,33.80
2015,07,18,07,06,29.00
2015,07,18,07,07,32.20
2015,07,18,07,08,27.40
2015,07,18,07,09,33.80
2015,07,18,07,10,30.60
2015,07,18,07,11,30.60
2015,07,18,07,12,29.00
2015,07,18,07,13,24.20
2015,07,18,07,14,22.50
2015,07,18,07,15,22.50
2015,07,18,07,16,24.20
2015,07,18,07,17,25.70
2015,07,18,07,18,25.70
2015,07,18,07,19,25.70
2015,07,18,07,20,19.30
2015,07,18,07,21,27.40
2015,07,18,07,22,22.50
2015,07,18,07,23,22.50
2015,07,18,07,24,17.70
2015,07,18,07,25,17.70
2015,07,18,07,26,17.70
2015,07,18,07,27,17.70
2015,07,18,07,28,20.90
2015,07,18,07,29,20.90
2015,07,18,07,30,32.20
2015,07,18,07,31,27.40
2015,07,18,07,32,29.00
2015,07,18,07,33,29.00
2015,07,18,07,34,25.70
2015,07,18,07,35,27.40
2015,07,18,07,36,33.80
2015,07,18,07,37,24.20
2015,07,18,07,38,25.70
2015,07,18,07,39,27.40
2015,07,18,07,40,24.20
2015,07,18,07,41,24.20
2015,07,18,07,42,24.20
2015,07,18,07,43,22.50
2015,07,18,07,44,33.80
2015,07,18,07,45,33.80
2015,07,18,07,46,27.40
2015,07,18,07,47,33.80
2015,07,18,07,48,29.00
2015,07,18,07,49,25.70
2015,07,18,07,50,30.60
2015,07,18,07,51,29.00
2015,07,18,07,52,20.90
2015,07,18,07,53,16.10
2015,07,18,07,54,17.70
2015,07,18,07,55,22.50
2015,07,18,07,56,22.50
2015,07,18,07,57,33.80
2015,07,18,07,58,32.20
2015,07,18,07,59,30.60
2015,07,18,08,00,30.60
2015,07,18,08,01,29.00
2015,07,18,08,02,29.00
2015,07,18,08,03,24.20
2015,07,18,08,04,29.00
2015,07,18,08,05,27.40
2015,07,18,08,06,22.50
2015,07,18,08,07,24.20
2015,07,18,08,08,24.20
2015,07,18,08,09,22.50
2015,07,18,08,10,32.20
2015,07,18,08,11,30.60
2015,07,18,08,12,29.00
2015,07,18,08,13,24.20
2015,07,18,08,14,20.90
2015,07,18,08,15,30.60
2015,07,18,08,16,27.40
2015,07,18,08,17,11.30
2015,07,18,08,18,20.90
2015,07,18,08,19,25.70
2015,07,18,08,20,19.30
2015,07,18,08,21,25.70
2015,07,18,08,22,29.00
2015,07,18,08,23,24.20
2015,07,18,08,24,33.80
2015,07,18,08,25,24.20
2015,07,18,08,26,30.60
2015,07,18,08,27,30.60
2015,07,18,08,28,32.20
2015,07,18,08,29,24.20
2015,07,18,08,30,17.70
2015,07,18,08,31,24.20
2015,07,18,08,32,17.70
2015,07,18,08,33,24.20
2015,07,18,08,34,19.30
2015,07,18,08,35,22.50
2015,07,18,08,36,22.50
2015,07,18,08,37,14.50
2015,07,18,08,38,16.10
2015,07,18,08,39,20.90
2015,07,18,08,40,16.10
2015,07,18,08,41,24.20
2015,07,18,08,42,24.20
2015,07,18,08,43,20.90
2015,07,18,08,44,24.20
2015,07,18,08,45,33.80
2015,07,18,08,46,29.00
2015,07,18,08,47,30.60
2015,07,18,08,48,29.00
2015,07,18,08,49,29.00
2015,07,18,08,50,27.40
2015,07,18,08,51,22.50
2015,07,18,08,52,24.20
2015,07,18,08,53,25.70
2015,07,18,08,54,24.20
2015,07,18,08,55,27.40
2015,07,18,08,56,27.40
2015,07,18,08,57,32.20
2015,07,18,08,58,29.00
2015,07,18,08,59,22.50
2015,07,18,09,00,29.00
2015,07,18,09,01,29.00
2015,07,18,09,02,29.00
2015,07,18,09,03,24.20
2015,07,18,09,04,20.90
2015,07,18,09,05,25.70
2015,07,18,09,06,27.40
2015,07,18,09,07,17.70
2015,07,18,09,08,19.30
2015,07,18,09,09,24.20
2015,07,18,09,10,19.30
2015,07,18,09,11,14.50
2015,07,18,09,12,24.20
2015,07,18,09,13,25.70
2015,07,18,09,14,20.90
2015,07,18,09,15,20.90
2015,07,18,09,16,30.60
2015,07,18,09,17,25.70
2015,07,18,09,18,22.50
2015,07,18,09,19,27.40
2015,07,18,09,20,24.20
2015,07,18,09,21,22.50
2015,07,18,09,22,22.50
2015,07,18,09,23,30.60
2015,07,18,09,24,24.20
2015,07,18,09,25,24.20
2015,07,18,09,26,25.70
2015,07,18,09,27,22.50
2015,07,18,09,28,22.50
2015,07,18,09,29,22.50
2015,07,18,09,30,20.90
2015,07,18,09,31,27.40
2015,07,18,09,32,20.90
2015,07,18,09,33,20.90
2015,07,18,09,34,20.90
2015,07,18,09,35,24.20
2015,07,18,09,36,24.20
2015,07,18,09,37,24.20
2015,07,18,09,38,22.50
2015,07,18,09,39,22.50
2015,07,18,09,40,17.70
2015,07,18,09,41,12.90
2015,07,18,09,42,16.10
2015,07,18,09,43,22.50
2015,07,18,09,44,20.90
2015,07,18,09,45,20.90
2015,07,18,09,46,22.50
2015,07,18,09,47,24.20
2015,07,18,09,48,22.50
2015,07,18,09,49,24.20
2015,07,18,09,50,25.70
2015,07,18,09,51,27.40
2015,07,18,09,52,29.00
2015,07,18,09,53,25.70
2015,07,18,09,54,22.50
2015,07,18,09,55,24.20
2015,07,18,09,56,32.20
2015,07,18,09,57,30.60
2015,07,18,09,58,29.00
2015,07,18,09,59,32.20
2015,07,18,10,00,32.20
2015,07,18,10,01,30.60
2015,07,18,10,02,29.00
2015,07,18,10,03,24.20
2015,07,18,10,04,29.00
2015,07,18,10,05,27.40
2015,07,18,10,06,30.60
2015,07,18,10,07,29.00
2015,07,18,10,08,25.70
2015,07,18,10,09,30.60
2015,07,18,10,10,24.20
2015,07,18,10,11,27.40
2015,07,18,10,12,25.70
2015,07,18,10,13,25.70
2015,07,18,10,14,32.20
2015,07,18,10,15,22.50
2015,07,18,10,16,24.20
2015,07,18,10,17,27.40
2015,07,18,10,18,37.00
2015,07,18,10,19,37.00
2015,07,18,10,20,30.60
2015,07,18,10,21,27.40
2015,07,18,10,22,30.60
2015,07,18,10,23,20.90
2015,07,18,10,24,32.20
2015,07,18,10,25,29.00
2015,07,18,10,26,25.70
2015,07,18,10,27,19.30
2015,07,18,10,28,16.10
2015,07,18,10,29,25.70
2015,07,18,10,30,24.20
2015,07,18,10,31,24.20
2015,07,18,10,32,24.20
2015,07,18,10,33,27.40
2015,07,18,10,34,22.50
2015,07,18,10,35,24.20
2015,07,18,10,36,22.50
2015,07,18,10,37,25.70
2015,07,18,10,38,24.20
2015,07,18,10,39,20.90
2015,07,18,10,40,35.40
2015,07,18,10,41,27.40
2015,07,18,10,42,29.00
2015,07,18,10,43,29.00
2015,07,18,10,44,27.40
2015,07,18,10,45,30.60
2015,07,18,10,46,24.20
2015,07,18,10,47,25.70
2015,07,18,10,48,30.60
2015,07,18,10,49,27.40
2015,07,18,10,50,27.40
2015,07,18,10,51,22.50
2015,07,18,10,52,27.40
2015,07,18,10,53,32.20
2015,07,18,10,54,25.70
2015,07,18,10,55,33.80
2015,07,18,10,56,25.70
2015,07,18,10,57,27.40
2015,07,18,10,58,25.70
2015,07,18,10,59,25.70
2015,07,18,11,00,24.20
2015,07,18,11,01,30.60
2015,07,18,11,02,19.30
2015,07,18,11,03,22.50
2015,07,18,11,04,27.40
2015,07,18,11,05,30.60
2015,07,18,11,06,27.40
2015,07,18,11,07,25.70
2015,07,18,11,08,32.20
2015,07,18,11,09,29.00
2015,07,18,11,10,25.70
2015,07,18,11,11,27.40
2015,07,18,11,12,29.00
2015,07,18,11,13,29.00
2015,07,18,11,14,19.30
2015,07,18,11,15,24.20
2015,07,18,11,16,25.70
2015,07,18,11,17,29.00
2015,07,18,11,18,27.40
2015,07,18,11,19,27.40
2015,07,18,11,20,25.70
2015,07,18,11,21,25.70
2015,07,18,11,22,19.30
2015,07,18,11,23,22.50
2015,07,18,11,24,19.30
2015,07,18,11,25,25.70
2015,07,18,11,26,29.00
2015,07,18,11,27,32.20
2015,07,18,11,28,24.20
2015,07,18,11,29,27.40
2015,07,18,11,30,27.40
2015,07,18,11,31,33.80
2015,07,18,11,32,27.40
2015,07,18,11,33,25.70
2015,07,18,11,34,22.50
2015,07,18,11,35,25.70
2015,07,18,11,36,22.50
2015,07,18,11,37,27.40
2015,07,18,11,38,27.40
2015,07,18,11,39,20.90
2015,07,18,11,40,24.20
2015,07,18,11,41,22.50
2015,07,18,11,42,20.90
2015,07,18,11,43,24.20
2015,07,18,11,44,24.20
2015,07,18,11,45,17.70
2015,07,18,11,46,27.40
2015,07,18,11,47,29.00
2015,07,18,11,48,22.50
2015,07,18,11,49,16.10
2015,07,18,11,50,20.90
2015,07,18,11,51,24.20
2015,07,18,11,52,24.20
2015,07,18,11,53,22.50
2015,07,18,11,54,25.70
2015,07,18,11,55,20.90
2015,07,18,11,56,17.70
2015,07,18,11,57,20.90
2015,07,18,11,58,20.90
2015,07,18,11,59,22.50
2015,07,18,12,00,19.30
2015,07,18,12,01,20.90
2015,07,18,12,02,20.90
2015,07,18,12,03,22.50
2015,07,18,12,04,24.20
2015,07,18,12,05,16.10
2015,07,18,12,06,20.90
2015,07,18,12,07,24.20
2015,07,18,12,08,25.70
2015,07,18,12,09,19.30
2015,07,18,12,10,19.30
2015,07,18,12,11,20.90
2015,07,18,12,12,22.50
2015,07,18,12,13,29.00
2015,07,18,12,14,24.20
2015,07,18,12,15,22.50
2015,07,18,12,16,24.20
2015,07,18,12,17,24.20
2015,07,18,12,18,22.50
2015,07,18,12,19,17.70
2015,07,18,12,20,17.70
2015,07,18,12,21,25.70
2015,07,18,12,22,25.70
2015,07,18,12,23,25.70
2015,07,18,12,24,24.20
2015,07,18,12,25,19.30
2015,07,18,12,26,30.60
2015,07,18,12,27,22.50
2015,07,18,12,28,22.50
2015,07,18,12,29,17.70
2015,07,18,12,30,25.70
2015,07,18,12,31,20.90
2015,07,18,12,32,20.90
2015,07,18,12,33,19.30
2015,07,18,12,34,20.90
2015,07,18,12,35,19.30
2015,07,18,12,36,24.20
2015,07,18,12,37,22.50
2015,07,18,12,38,24.20
2015,07,18,12,39,29.00
2015,07,18,12,40,30.60
2015,07,18,12,41,22.50
2015,07,18,12,42,19.30
2015,07,18,12,43,25.70
2015,07,18,12,44,27.40
2015,07,18,12,45,22.50
2015,07,18,12,46,25.70
2015,07,18,12,47,24.20
2015,07,18,12,48,27.40
2015,07,18,12,49,24.20
2015,07,18,12,50,29.00
2015,07,18,12,51,22.50
2015,07,18,12,52,20.90
2015,07,18,12,53,35.40
2015,07,18,12,54,24.20
2015,07,18,12,55,27.40
2015,07,18,12,56,20.90
2015,07,18,12,57,30.60
2015,07,18,12,58,24.20
2015,07,18,12,59,20.90
2015,07,18,13,00,22.50
2015,07,18,13,01,24.20
2015,07,18,13,02,24.20
2015,07,18,13,03,30.60
2015,07,18,13,04,25.70
2015,07,18,13,05,27.40
2015,07,18,13,06,25.70
2015,07,18,13,07,25.70
2015,07,18,13,08,24.20
2015,07,18,13,09,27.40
2015,07,18,13,10,24.20
2015,07,18,13,11,24.20
2015,07,18,13,12,25.70
2015,07,18,13,13,22.50
2015,07,18,13,14,24.20
2015,07,18,13,15,27.40
2015,07,18,13,16,22.50
2015,07,18,13,17,19.30
2015,07,18,13,18,24.20
2015,07,18,13,19,25.70
2015,07,18,13,20,25.70
2015,07,18,13,21,24.20
2015,07,18,13,22,24.20
2015,07,18,13,23,24.20
2015,07,18,13,24,22.50
2015,07,18,13,25,20.90
2015,07,18,13,26,25.70
2015,07,18,13,27,29.00
2015,07,18,13,28,22.50
2015,07,18,13,29,24.20
2015,07,18,13,30,27.40
2015,07,18,13,31,19.30
2015,07,18,13,32,24.20
2015,07,18,13,33,27.40
2015,07,18,13,34,29.00
2015,07,18,13,35,35.40
2015,07,18,13,36,27.40
2015,07,18,13,37,25.70
2015,07,18,13,38,22.50
2015,07,18,13,39,25.70
2015,07,18,13,40,24.20
2015,07,18,13,41,27.40
2015,07,18,13,42,27.40
2015,07,18,13,43,24.20
2015,07,18,13,44,19.30
2015,07,18,13,45,29.00
2015,07,18,13,46,29.00
2015,07,18,13,47,30.60
2015,07,18,13,48,25.70
2015,07,18,13,49,27.40
2015,07,18,13,50,25.70
2015,07,18,13,51,27.40
2015,07,18,13,52,25.70
2015,07,18,13,53,27.40
2015,07,18,13,54,25.70
2015,07,18,13,55,25.70
2015,07,18,13,56,20.90
2015,07,18,13,57,24.20
2015,07,18,13,58,27.40
2015,07,18,13,59,27.40
2015,07,18,14,00,19.30
2015,07,18,14,01,29.00
2015,07,18,14,02,24.20
2015,07,18,14,03,27.40
2015,07,18,14,04,16.10
2015,07,18,14,05,24.20
2015,07,18,14,06,22.50
2015,07,18,14,07,19.30
2015,07,18,14,08,22.50
2015,07,18,14,09,27.40
2015,07,18,14,10,22.50
2015,07,18,14,11,24.20
2015,07,18,14,12,25.70
2015,07,18,14,13,24.20
2015,07,18,14,14,24.20
2015,07,18,14,15,17.70
2015,07,18,14,16,22.50
2015,07,18,14,17,22.50
2015,07,18,14,18,20.90
2015,07,18,14,19,22.50
2015,07,18,14,20,25.70
2015,07,18,14,21,22.50
2015,07,18,14,22,22.50
2015,07,18,14,23,20.90
2015,07,18,14,24,11.30
2015,07,18,14,25,17.70
2015,07,18,14,26,20.90
2015,07,18,14,27,19.30
2015,07,18,14,28,20.90
2015,07,18,14,29,20.90
2015,07,18,14,30,24.20
2015,07,18,14,31,20.90
2015,07,18,14,32,19.30
2015,07,18,14,33,17.70
2015,07,18,14,34,22.50
2015,07,18,14,35,20.90
2015,07,18,14,36,14.50
2015,07,18,14,37,17.70
2015,07,18,14,38,20.90
2015,07,18,14,39,25.70
2015,07,18,14,40,19.30
2015,07,18,14,41,22.50
2015,07,18,14,42,20.90
2015,07,18,14,43,24.20
2015,07,18,14,44,22.50
2015,07,18,14,45,24.20
2015,07,18,14,46,17.70
2015,07,18,14,47,19.30
2015,07,18,14,48,17.70
2015,07,18,14,49,22.50
2015,07,18,14,50,20.90
2015,07,18,14,51,22.50
2015,07,18,14,52,20.90
2015,07,18,14,53,20.90
2015,07,18,14,54,20.90
2015,07,18,14,55,24.20
2015,07,18,14,56,20.90
2015,07,18,14,57,22.50
2015,07,18,14,58,24.20
2015,07,18,14,59,24.20
2015,07,18,15,00,19.30
2015,07,18,15,01,16.10
2015,07,18,15,02,14.50
2015,07,18,15,03,17.70
2015,07,18,15,04,16.10
2015,07,18,15,05,16.10
2015,07,18,15,06,17.70
2015,07,18,15,07,19.30
2015,07,18,15,08,19.30
2015,07,18,15,09,17.70
2015,07,18,15,10,19.30
2015,07,18,15,11,19.30
2015,07,18,15,12,24.20
2015,07,18,15,13,29.00
2015,07,18,15,14,17.70
2015,07,18,15,15,27.40
2015,07,18,15,16,20.90
2015,07,18,15,17,24.20
2015,07,18,15,18,22.50
2015,07,18,15,19,24.20
2015,07,18,15,20,20.90
2015,07,18,15,21,20.90
2015,07,18,15,22,20.90
2015,07,18,15,23,22.50
2015,07,18,15,24,22.50
2015,07,18,15,25,22.50
2015,07,18,15,26,22.50
2015,07,18,15,27,27.40
2015,07,18,15,28,20.90
2015,07,18,15,29,22.50
2015,07,18,15,30,27.40
2015,07,18,15,31,24.20
2015,07,18,15,32,24.20
2015,07,18,15,33,20.90
2015,07,18,15,34,17.70
2015,07,18,15,35,16.10
2015,07,18,15,36,22.50
2015,07,18,15,37,20.90
2015,07,18,15,38,25.70
2015,07,18,15,39,24.20
2015,07,18,15,40,24.20
2015,07,18,15,41,19.30
2015,07,18,15,42,17.70
2015,07,18,15,43,25.70
2015,07,18,15,44,22.50
2015,07,18,15,45,24.20
2015,07,18,15,46,20.90
2015,07,18,15,47,24.20
2015,07,18,15,48,22.50
2015,07,18,15,49,22.50
2015,07,18,15,50,22.50
2015,07,18,15,51,20.90
2015,07,18,15,52,20.90
2015,07,18,15,53,24.20
2015,07,18,15,54,20.90
2015,07,18,15,55,19.30
2015,07,18,15,56,20.90
2015,07,18,15,57,24.20
2015,07,18,15,58,24.20
2015,07,18,15,59,19.30
2015,07,18,16,00,17.70
2015,07,18,16,01,20.90
2015,07,18,16,02,24.20
2015,07,18,16,03,19.30
2015,07,18,16,04,20.90
2015,07,18,16,05,17.70
2015,07,18,16,06,19.30
2015,07,18,16,07,19.30
2015,07,18,16,08,17.70
2015,07,18,16,09,24.20
2015,07,18,16,10,17.70
2015,07,18,16,11,20.90
2015,07,18,16,12,19.30
2015,07,18,16,13,24.20
2015,07,18,16,14,25.70
2015,07,18,16,15,24.20
2015,07,18,16,16,19.30
2015,07,18,16,17,22.50
2015,07,18,16,18,20.90
2015,07,18,16,19,16.10
2015,07,18,16,20,20.90
2015,07,18,16,21,20.90
2015,07,18,16,22,22.50
2015,07,18,16,23,19.30
2015,07,18,16,24,19.30
2015,07,18,16,25,19.30
2015,07,18,16,26,22.50
2015,07,18,16,27,16.10
2015,07,18,16,28,22.50
2015,07,18,16,29,20.90
2015,07,18,16,30,22.50
2015,07,18,16,31,20.90
2015,07,18,16,32,24.20
2015,07,18,16,33,19.30
2015,07,18,16,34,12.90
2015,07,18,16,35,19.30
2015,07,18,16,36,19.30
2015,07,18,16,37,20.90
2015,07,18,16,38,17.70
2015,07,18,16,39,22.50
2015,07,18,16,40,16.10
2015,07,18,16,41,14.50
2015,07,18,16,42,22.50
2015,07,18,16,43,20.90
2015,07,18,16,44,16.10
2015,07,18,16,45,19.30
2015,07,18,16,46,19.30
2015,07,18,16,47,19.30
2015,07,18,16,48,19.30
2015,07,18,16,49,17.70
2015,07,18,16,50,17.70
2015,07,18,16,51,19.30
2015,07,18,16,52,17.70
2015,07,18,16,53,11.30
2015,07,18,16,54,19.30
2015,07,18,16,55,14.50
2015,07,18,16,56,19.30
2015,07,18,16,57,19.30
2015,07,18,16,58,12.90
2015,07,18,16,59,12.90
2015,07,18,17,00,14.50
2015,07,18,17,01,17.70
2015,07,18,17,02,16.10
2015,07,18,17,03,16.10
2015,07,18,17,04,17.70
2015,07,18,17,05,16.10
2015,07,18,17,06,17.70
2015,07,18,17,07,19.30
2015,07,18,17,08,14.50
2015,07,18,17,09,16.10
2015,07,18,17,10,17.70
2015,07,18,17,11,14.50
2015,07,18,17,12,9.60
2015,07,18,17,13,11.30
2015,07,18,17,14,14.50
2015,07,18,17,15,11.30
2015,07,18,17,16,9.60
2015,07,18,17,17,11.30
2015,07,18,17,18,12.90
2015,07,18,17,19,11.30